Powrót do katalogu

QIANFAN-73

AktywnyŁącznośćPO
NORAD 63159·PAYLOAD·🇨🇳 China

Wystrzelony Mar 11, 2025 z Wenchang Space Launch Site

Loading…

Następne Przeloty (najbliższe 24 godziny)

TLE

ŚwieżeSource: Space-Track

Epoka: Sep 14, 2026, 20:38 UTC

1 63159U 25046A   26257.86014010  .00000025  00000-0  19673-4 0  9990
2 63159  88.9650 291.3556 0016456  51.4328 308.8294 13.51025015 84692

Śledź QIANFAN-73 w czasie rzeczywistym z AllMySat

Download on the App Store